Lake Clear, NY

2:31 PM EST on February 26, 2017 (GMT -0500)
Adirondack Regional

Weather History for KSLK - January, 2015

Change the Weather History Date:

Sunday, January 25, 2015

  Actual Average Record
Temperature  
Mean Temperature 4 °F 13 °F  
Max Temperature 27 °F 25 °F 47 °F (1953)
Min Temperature -19 °F 1 °F -31 °F (2004)
Degree Days  
Heating Degree Days 61 52  
Month to date heating degree days 1216 1291  
Since 1 July heating degree days 4629 4990  
Cooling Degree Days 0 0  
Month to date cooling degree days 0 0  
Year to date cooling degree days 0 0  
Moisture  
Dew Point 6 °F    
Average Humidity 80    
Maximum Humidity 92    
Minimum Humidity 68    
Precipitation  
Precipitation 0.03 in 0.06 in 0.97 in (1979)
Month to date precipitation 0.60 1.68  
Year to date precipitation 0.60 1.68  
Sea Level Pressure  
Sea Level Pressure 29.58 in    
Wind  
Wind Speed 6 mph (West)    
Max Wind Speed 15 mph    
Max Gust Speed 24 mph    
Visibility 5 miles    
Events Snow    
T = Trace of Precipitation, MM = Missing Value Source: NWS Daily Summary

Daily Weather History Graph

Daily Weather History Graph

Search for Another Location

Airport or City:

Trip Planner

Search our weather history database for the weather conditions in past years. The results will help you decide how hot, cold, wet, or windy it might be!

Date:

Astronomy

Jan. 25, 2015 Rise Set
Actual Time 7:22 AM EST 4:56 PM EST
Civil Twilight 6:51 AM EST 5:27 PM EST
Nautical Twilight 6:15 AM EST 6:03 PM EST
Astronomical Twilight 5:41 AM EST 6:37 PM EST
Moon 10:12 AM EST (1/25) 11:33 PM EST (1/25)
Length of Visible Light 10h 36m
Length of Day
9h 33m
Waxing Crescent, 34% of the Moon is Illuminated
Jan 25
Waxing Crescent
Jan 26
First Quarter
Feb 3
Full
Feb 11
Last Quarter
Feb 18
New

Hourly Weather History & Observations

Time (EST) Temp. Windchill Dew Point Humidity Pressure Visibility Wind Dir Wind Speed Gust Speed Precip Events Conditions
12:00 AM 26.1 °F 16.8 °F 24.1 °F 92% 29.26 in 1.5 mi WSW 9.2 mph - 0.00 in Snow Light Snow
12:05 AM 26.1 °F 18.4 °F 24.1 °F 92% 29.26 in 2.0 mi WSW 6.9 mph - 0.00 in Snow Light Snow
12:14 AM 26.1 °F 17.6 °F 23.0 °F 88% 29.26 in 6.0 mi WSW 8.1 mph - 0.00 in Snow Light Snow
12:26 AM 26.1 °F 17.6 °F 23.0 °F 88% 29.25 in 1.8 mi WSW 8.1 mph - 0.00 in Snow Light Snow
12:43 AM 26.1 °F 18.4 °F 24.1 °F 92% 29.25 in 2.5 mi Variable 6.9 mph - 0.00 in Snow Light Snow
12:51 AM 26.1 °F 16.8 °F 24.1 °F 92% 29.31 in 4.0 mi WSW 9.2 mph - 0.00 in Snow Light Snow
1:10 AM 26.1 °F 17.6 °F 24.1 °F 92% 29.26 in 4.0 mi WSW 8.1 mph - 0.01 in Snow Light Snow
1:28 AM 26.1 °F 16.8 °F 24.1 °F 92% 29.26 in 2.5 mi West 9.2 mph - 0.01 in Snow Light Snow
1:51 AM 26.1 °F 16.2 °F 24.1 °F 92% 29.32 in 1.2 mi WSW 10.4 mph - 0.01 in Snow Light Snow
2:07 AM 26.1 °F 18.4 °F 24.1 °F 92% 29.28 in 3.0 mi West 6.9 mph - 0.00 in Snow Light Snow
2:20 AM 27.0 °F 17.3 °F 24.1 °F 89% 29.28 in 1.5 mi West 10.4 mph - 0.00 in Snow Light Snow
2:51 AM 26.1 °F 19.4 °F 24.1 °F 92% 29.34 in 1.2 mi West 5.8 mph - 0.01 in Snow Light Snow
3:34 AM 26.1 °F 17.6 °F 23.0 °F 88% 29.31 in 2.5 mi West 8.1 mph - 0.00 in Snow Light Snow
3:51 AM 25.0 °F 15.5 °F 21.9 °F 88% 29.37 in 1.5 mi WNW 9.2 mph 20.7 mph 0.00 in Snow Light Snow
3:59 AM 25.0 °F 17.1 °F 21.0 °F 85% 29.32 in 2.5 mi Variable 6.9 mph - 0.00 in Snow Light Snow
4:09 AM 23.0 °F 12.4 °F 19.9 °F 88% 29.33 in 2.0 mi NNW 10.4 mph 17.3 mph 0.00 in Snow Light Snow
4:29 AM 19.9 °F 8.6 °F 17.1 °F 89% 29.35 in 1.8 mi NW 10.4 mph 24.2 mph 0.00 in Snow Light Snow
4:38 AM 19.9 °F 9.3 °F 16.0 °F 85% 29.37 in 2.5 mi NW 9.2 mph 19.6 mph 0.00 in Snow Light Snow
4:47 AM 19.4 °F 11.5 °F 15.8 °F 86% 29.37 in 1.0 mi Variable 5.8 mph - 0.01 in Snow Light Snow
4:51 AM 19.0 °F 9.0 °F 16.0 °F 88% 29.44 in 0.8 mi WNW 8.1 mph - 0.01 in Snow Light Snow
5:01 AM 18.0 °F 4.8 °F 14.0 °F 84% 29.39 in 1.0 mi NW 12.7 mph 20.7 mph 0.00 in Snow Light Snow
5:38 AM 15.1 °F 4.2 °F 10.9 °F 84% 29.43 in 1.5 mi WNW 8.1 mph - 0.00 in Snow Light Snow
5:51 AM 14.0 °F 1.2 °F 10.9 °F 88% 29.52 in 1.2 mi WNW 10.4 mph 17.3 mph 0.00 in Snow Light Snow
6:22 AM 12.0 °F -2.0 °F 8.1 °F 84% 29.48 in 2.5 mi WNW 11.5 mph 19.6 mph 0.00 in Snow Light Snow
6:30 AM 10.9 °F -1.8 °F 6.1 °F 81% 29.49 in 4.0 mi WNW 9.2 mph 20.7 mph 0.00 in Snow Light Snow
6:37 AM 10.0 °F -2.9 °F 6.1 °F 84% 29.50 in 1.8 mi WNW 9.2 mph - 0.00 in Snow Light Snow
6:46 AM 10.4 °F -3.3 °F 5.0 °F 79% 29.51 in 3.0 mi WNW 10.4 mph 18.4 mph 0.00 in Snow Light Snow
6:51 AM 9.0 °F -4.2 °F 3.9 °F 80% 29.60 in 5.0 mi NW 9.2 mph 18.4 mph 0.00 in Snow Light Snow
7:34 AM 7.0 °F -6.6 °F 3.0 °F 84% 29.56 in 1.8 mi West 9.2 mph - 0.00 in Snow Light Snow
7:45 AM 5.0 °F -10.0 °F -0.4 °F 78% 29.57 in 3.0 mi WNW 10.4 mph 21.9 mph 0.00 in   Haze
7:51 AM 3.9 °F -9.4 °F -0.0 °F 84% 29.67 in 2.5 mi NW 8.1 mph 21.9 mph 0.00 in   Overcast
7:58 AM 3.0 °F -8.0 °F -0.9 °F 84% 29.58 in 5.0 mi Variable 5.8 mph 19.6 mph N/A   Overcast
8:20 AM 3.0 °F -8.0 °F -2.0 °F 80% 29.60 in 7.0 mi Variable 5.8 mph - N/A   Overcast
8:30 AM 3.0 °F -11.5 °F -2.0 °F 80% 29.61 in 7.0 mi NW 9.2 mph - N/A   Overcast
8:51 AM 3.0 °F -8.0 °F -2.0 °F 80% 29.71 in 7.0 mi Variable 5.8 mph - N/A   Overcast
9:06 AM 3.0 °F -8.0 °F -2.0 °F 80% 29.62 in 2.5 mi Variable 5.8 mph - 0.00 in Snow Light Snow
9:14 AM 3.0 °F -8.0 °F -2.0 °F 80% 29.63 in 6.0 mi Variable 5.8 mph - 0.00 in   Haze
9:51 AM 3.0 °F -8.0 °F -2.0 °F 80% 29.74 in 3.0 mi West 5.8 mph 17.3 mph 0.00 in   Haze
10:02 AM 3.0 °F -9.3 °F -2.0 °F 80% 29.65 in 2.5 mi Variable 6.9 mph - 0.00 in Snow Light Snow
10:12 AM 3.0 °F -9.3 °F -2.9 °F 76% 29.65 in 4.0 mi West 6.9 mph - 0.00 in   Haze
10:30 AM 3.0 °F -9.3 °F -2.9 °F 76% 29.66 in 2.0 mi Variable 6.9 mph - 0.00 in   Haze
10:51 AM 3.0 °F -8.0 °F -5.1 °F 69% 29.77 in 6.0 mi Variable 5.8 mph - 0.00 in   Haze
11:09 AM 3.0 °F -10.5 °F -4.0 °F 73% 29.68 in 4.0 mi WSW 8.1 mph - N/A   Haze
11:51 AM 3.9 °F -8.2 °F -4.0 °F 70% 29.78 in 8.0 mi Variable 6.9 mph 17.3 mph N/A   Overcast
12:51 PM 5.0 °F -10.0 °F -4.0 °F 66% 29.79 in 7.0 mi WNW 10.4 mph - 0.00 in   Overcast
1:51 PM 6.1 °F -6.8 °F -2.9 °F 67% 29.80 in 10.0 mi West 8.1 mph - N/A   Mostly Cloudy
2:51 PM 6.1 °F -8.7 °F -2.9 °F 67% 29.83 in 10.0 mi WSW 10.4 mph - N/A   Mostly Cloudy
3:26 PM 6.1 °F -8.7 °F -2.9 °F 67% 29.77 in 10.0 mi WSW 10.4 mph - N/A   Scattered Clouds
3:51 PM 6.1 °F -4.3 °F -2.9 °F 67% 29.87 in 10.0 mi WSW 5.8 mph - N/A   Clear
4:51 PM 3.9 °F - -2.9 °F 73% 29.90 in 10.0 mi Calm Calm - N/A   Clear
5:51 PM 1.9 °F -7.6 °F -5.1 °F 72% 29.96 in 10.0 mi SW 4.6 mph - N/A   Clear
6:51 PM -2.9 °F -11.2 °F -6.0 °F 87% 30.01 in 10.0 mi SW 3.5 mph - N/A   Clear
7:51 PM -7.1 °F - -11.9 °F 79% 30.06 in 10.0 mi Calm Calm - N/A   Clear
8:51 PM -11.0 °F - -15.0 °F 83% 30.08 in 10.0 mi Calm Calm - N/A   Clear
9:51 PM -11.9 °F - -16.1 °F 82% 30.10 in 10.0 mi Calm Calm - N/A   Clear
10:51 PM -17.0 °F - -20.0 °F 86% 30.10 in 10.0 mi Calm Calm - N/A   Clear
11:51 PM -18.0 °F - -23.1 °F 78% 30.10 in 10.0 mi Calm Calm - N/A   Clear